Wind_Speed
43 40 39 37 32 31 29 28 25 24 25 25 24 23 22 21 19 18 16 14 14 13 12 11 11 11 10 10 11 11 11 11 10 10 8 7 7 7 6 7 8 8 8
46 44 42 42 36 31 31 32 32 30 28 28 28 25 23 23 21 21 20 19 18 19 19 19 17 16 16 16 15 14 12 13 14 15 14 12 11 12 11 11 9 10 10
45 43 39 36 35 32 29 32 36 36 36 32 30 32 30 30 28 28 26 26 27 27 26 25 25 26 25 23 22 20 19 17 17 18 18 17 16 14 15 15 15 15 14
44 41 37 37 37 34 34 35 38 38 39 38 37 36 36 34 34 33 32 31 31 30 30 32 32 31 30 30 29 27 24 23 23 23 21 22 21 20 20 19 19 19 18
42 37 39 40 39 41 41 41 42 43 41 41 40 40 40 40 39 37 36 35 35 36 36 35 37 36 36 36 35 32 30 29 28 28 27 25 24 24 25 25 24 24 24
35 35 37 39 38 38 37 36 40 43 45 45 45 45 42 43 39 39 41 42 41 40 42 41 40 40 40 40 38 38 35 34 34 32 32 31 31 29 28 27 27 28 29
30 30 29 30 29 31 32 34 34 36 38 40 40 41 45 47 47 46 46 47 46 45 45 45 44 43 43 42 41 41 41 38 37 37 36 35 35 35 34 34 32 31 32
30 29 28 27 27 26 27 28 28 27 30 30 32 34 36 38 41 43 46 48 51 50 47 46 45 44 45 45 43 43 44 42 42 41 40 40 39 39 38 37 36 34 35
35 33 33 32 30 30 28 27 29 30 32 32 31 30 30 31 35 37 37 36 39 42 42 43 43 45 44 45 45 44 46 46 45 44 43 44 43 42 42 41 40 40 39
38 38 38 37 35 34 33 31 30 31 31 33 32 32 34 34 33 33 34 33 30 32 35 39 40 41 44 46 45 47 46 47 50 48 47 46 45 45 45 44 43 42 43
43 44 43 42 41 40 39 38 37 36 37 37 36 36 37 36 35 35 36 34 31 30 29 30 37 41 40 42 45 48 48 48 48 50 50 49 49 48 47 46 47 46 46
48 48 48 47 46 46 46 45 44 43 44 44 43 42 38 39 41 40 41 41 40 37 35 35 33 33 36 40 43 46 49 50 51 52 51 50 49 48 48 47 48 48 48
55 53 53 52 52 53 52 52 52 52 51 51 50 50 49 46 39 43 45 45 43 42 42 41 40 38 37 37 39 42 46 49 48 48 49 49 48 49 48 48 45 42 43
61 60 60 59 59 60 59 58 58 58 59 59 59 58 57 56 54 52 50 50 50 50 49 47 46 45 42 43 43 41 42 45 44 44 46 48 47 47 44 42 42 39 39
68 66 66 66 67 66 66 65 65 65 66 67 68 68 66 64 64 62 61 59 55 55 55 53 51 50 48 47 47 50 49 47 45 45 45 44 44 43 42 42 43 42 43
72 73 71 70 71 70 70 71 72 73 73 73 74 74 72 71 71 71 70 68 66 66 67 63 61 58 56 54 53 52 53 53 51 51 50 49 48 48 48 47 48 48 47
74 75 77 76 76 77 76 76 76 79 80 80 81 81 79 79 79 77 76 77 77 76 74 73 72 68 65 63 60 58 58 57 58 59 56 54 53 52 52 52 52 52 53
78 78 77 78 80 81 82 82 83 83 82 81 82 83 85 85 84 82 81 81 83 83 82 80 80 80 78 74 71 69 65 64 62 62 62 59 56 57 57 56 56 53 50
84 84 85 86 86 87 89 89 89 90 90 89 87 87 88 88 88 88 87 86 87 88 87 87 85 84 83 83 79 79 75 70 67 66 64 63 62 60 58 60 60 59 58
86 85 84 85 86 87 88 89 90 90 89 91 92 92 91 90 91 91 92 93 93 93 93 93 92 90 89 88 86 83 81 80 78 74 70 69 68 68 65 63 63 62 63
72 74 73 75 76 76 79 80 82 82 83 84 84 85 88 90 92 94 97 99 101 102 101 100 99 98 96 96 95 90 89 87 86 86 83 78 76 75 73 70 69 69 71
75 75 76 77 79 80 82 84 84 85 86 86 87 87 87 87 89 91 91 92 94 94 96 97 97 95 95 96 98 100 98 97 93 89 85 84 84 83 80 77 77 72 74
80 82 83 85 86 87 87 86 86 86 87 89 91 92 92 92 93 93 95 95 96 97 99 100 99 98 95 94 93 93 94 95 98 97 95 93 89 83 78 80 78 77 80
88 88 87 87 85 82 82 82 84 85 86 87 89 91 92 93 93 95 96 98 99 101 103 102 103 102 101 97 98 95 92 90 92 93 96 97 92 82 75 79 77 82 84
90 88 84 76 70 70 74 76 77 77 78 80 82 84 86 87 90 92 92 93 98 102 101 100 101 102 104 103 104 101 97 92 91 95 92 90 91 82 76 73 80 83 80
77 71 69 71 72 72 73 75 77 76 75 75 75 75 77 79 81 81 81 84 90 98 98 93 95 95 97 98 98 100 101 101 96 93 91 89 85 84 73 69 72 70 69
Wind_Direction
272 273 269 269 268 270 270 269 271 269 270 271 262 261 254 256 259 263 266 267 273 278 279 274 271 273 271 276 283 289 291 284 282 276 263 272 289 302 314 317 320 320 324
270 272 268 267 265 263 269 272 271 270 271 268 266 261 259 254 258 266 273 271 276 281 277 275 279 277 276 278 273 275 278 285 287 279 281 269 267 276 279 280 282 286 293
268 272 264 265 260 262 266 271 272 271 267 269 273 266 262 259 261 264 266 268 272 275 277 277 277 277 279 278 275 272 273 273 275 280 279 276 275 274 277 280 282 285 289
268 263 259 262 262 262 265 271 272 269 267 263 268 270 264 263 264 264 265 268 269 272 276 277 278 276 279 279 278 276 271 271 274 272 274 277 276 275 275 278 282 284 287
260 262 263 267 267 269 272 273 267 266 265 266 266 269 265 266 266 266 266 270 273 269 272 277 276 274 275 278 279 271 270 270 272 276 274 272 276 277 277 279 281 281 284
267 267 268 267 269 270 273 271 268 267 266 270 272 270 262 263 264 264 266 270 272 271 270 274 276 272 272 272 275 273 269 270 273 274 277 275 274 275 278 281 283 284 287
266 269 270 269 271 274 272 272 270 268 269 270 269 268 266 260 262 266 270 271 271 270 269 270 274 272 270 269 268 271 269 269 272 273 276 278 278 279 279 278 279 281 284
270 270 267 269 270 274 274 274 272 267 266 271 272 272 270 268 268 270 273 273 270 269 267 265 268 271 271 269 267 267 267 271 274 274 276 277 277 277 281 281 281 284 286
270 269 268 267 268 272 274 274 270 270 271 273 276 276 273 273 273 273 277 279 274 269 267 267 266 269 270 269 267 265 267 266 268 270 273 277 278 278 279 279 279 278 280
263 267 269 268 270 268 272 273 269 272 272 272 277 277 277 278 278 278 282 281 282 278 271 269 269 269 269 265 267 265 266 267 267 269 272 274 276 278 278 280 281 282 280
258 263 267 270 273 274 276 277 276 274 275 274 274 277 280 280 280 283 284 283 285 282 281 275 272 270 270 268 265 265 266 267 267 268 270 272 275 276 278 278 279 280 280
256 260 263 265 268 271 273 274 274 275 275 276 275 273 273 276 280 280 282 284 285 285 284 283 280 280 276 271 269 268 268 268 268 269 270 271 273 275 278 281 281 280 278
255 256 259 262 265 267 268 269 271 272 272 272 273 274 274 275 269 275 277 280 279 278 280 284 283 279 281 281 275 273 270 270 272 271 269 271 273 279 280 280 282 282 283
257 257 258 259 261 264 266 268 269 271 272 273 273 273 272 273 273 271 270 272 272 275 277 278 279 278 280 282 283 280 277 274 273 273 272 272 275 279 280 277 281 281 283
260 260 260 261 262 263 265 266 267 268 270 272 272 272 272 272 272 272 273 272 272 268 270 271 274 276 277 279 280 281 282 281 279 277 277 277 278 277 279 278 278 280 284
264 265 266 266 265 264 266 268 268 269 270 269 270 270 271 272 273 275 276 274 273 270 273 272 271 270 273 273 274 275 277 279 278 276 276 277 277 278 278 277 277 281 283
266 267 267 267 267 266 267 269 269 271 270 270 270 270 269 268 268 270 272 274 274 273 273 275 276 275 274 271 271 270 272 273 274 274 272 272 272 272 274 275 277 280 283
271 271 271 271 271 269 269 270 270 270 270 272 273 272 271 269 268 268 269 270 272 274 274 274 275 275 275 273 273 272 267 267 269 269 270 270 270 271 273 273 274 277 279
269 272 273 273 274 273 273 272 272 272 273 273 273 272 272 271 270 269 268 268 269 270 271 272 272 273 272 273 272 273 271 269 267 266 265 269 270 271 272 276 275 276 278
270 272 272 272 272 273 273 274 274 273 272 272 273 272 270 268 269 269 269 270 271 270 271 272 272 271 270 270 270 269 270 270 268 265 263 264 267 270 271 272 275 275 277
272 272 274 277 275 274 275 274 275 274 273 273 272 272 271 271 270 268 267 268 268 269 269 268 267 267 267 268 268 268 267 267 267 268 268 265 266 267 268 269 273 276 276
277 279 280 279 279 279 279 278 278 277 276 275 273 271 270 270 270 270 270 270 270 270 270 268 267 266 264 263 262 263 264 265 266 266 264 265 266 268 271 272 277 277 278
280 279 278 279 280 280 280 279 278 276 274 274 273 273 271 269 270 271 271 270 270 270 270 269 269 268 265 264 263 261 259 260 260 261 261 262 264 266 266 269 275 272 277
279 279 279 281 281 281 278 277 275 273 271 271 271 271 271 271 270 270 270 270 271 269 267 267 267 268 269 267 265 262 257 255 256 256 257 259 261 262 265 271 270 273 271
279 280 283 283 278 277 277 277 275 275 274 274 273 272 273 272 271 272 272 271 270 269 269 269 267 266 266 265 263 262 260 257 253 254 254 254 256 258 253 264 270 271 270
283 284 282 279 278 277 277 277 277 276 275 274 274 274 274 274 274 274 274 272 272 273 273 271 270 267 265 262 261 260 258 258 255 251 250 251 252 252 254 254 262 263 258
Height
10882 10883 10883 10885 10888 10887 10889 10890 10890 10891 10891 10892 10892 10893 10893 10893 10893 10893 10893 10893 10893 10893 10893 10893 10893 10894 10893 10892 10892 10893 10892 10892 10891 10889 10889 10889 10888 10888 10887 10886 10885 10885 10884
10874 10877 10878 10879 10881 10885 10884 10884 10885 10886 10887 10888 10888 10889 10889 10890 10890 10890 10891 10891 10891 10891 10890 10890 10891 10891 10891 10890 10890 10889 10889 10889 10888 10887 10887 10886 10886 10885 10884 10883 10882 10882 10881
10868 10869 10872 10872 10875 10878 10880 10879 10879 10881 10882 10883 10883 10885 10885 10886 10886 10887 10887 10888 10888 10888 10888 10887 10887 10886 10886 10887 10887 10886 10886 10885 10884 10884 10883 10883 10883 10883 10881 10881 10880 10879 10878
10863 10863 10865 10867 10868 10871 10873 10876 10874 10874 10875 10876 10878 10879 10879 10880 10881 10881 10882 10883 10884 10884 10883 10883 10883 10882 10881 10881 10882 10882 10882 10881 10880 10880 10879 10879 10879 10879 10878 10878 10877 10876 10875
10857 10858 10860 10861 10863 10865 10868 10868 10868 10868 10869 10870 10871 10873 10874 10874 10875 10875 10876 10876 10878 10878 10878 10878 10878 10877 10876 10876 10876 10877 10876 10876 10876 10875 10875 10874 10874 10874 10874 10873 10872 10872 10871
10851 10853 10854 10854 10856 10858 10859 10860 10860 10860 10861 10862 10863 10865 10866 10868 10868 10869 10869 10870 10871 10871 10871 10871 10872 10871 10871 10870 10871 10871 10870 10870 10870 10870 10869 10869 10869 10869 10869 10868 10867 10867 10866
10845 10847 10847 10848 10849 10852 10853 10853 10853 10853 10854 10855 10855 10856 10857 10859 10860 10861 10862 10862 10862 10863 10863 10864 10864 10864 10864 10864 10865 10865 10864 10864 10864 10865 10864 10863 10863 10863 10863 10863 10862 10862 10861
10840 10842 10842 10843 10844 10846 10847 10848 10847 10848 10848 10848 10849 10849 10849 10850 10852 10854 10854 10853 10853 10853 10854 10856 10856 10857 10857 10857 10858 10859 10858 10858 10858 10858 10858 10858 10857 10857 10856 10856 10856 10856 10856
10833 10835 10836 10837 10839 10840 10841 10842 10843 10843 10843 10844 10844 10844 10844 10845 10845 10846 10846 10845 10844 10843 10845 10846 10847 10848 10849 10849 10850 10851 10851 10851 10851 10851 10852 10851 10851 10850 10850 10849 10849 10849 10849
10825 10827 10828 10830 10831 10833 10834 10835 10837 10838 10837 10838 10839 10838 10839 10840 10840 10839 10838 10838 10838 10837 10837 10837 10838 10839 10839 10840 10840 10842 10843 10843 10843 10843 10843 10843 10843 10843 10843 10842 10842 10841 10841
10818 10820 10822 10823 10826 10827 10829 10830 10831 10832 10832 10832 10833 10833 10832 10832 10833 10833 10832 10831 10831 10830 10830 10830 10830 10831 10831 10831 10832 10832 10833 10834 10834 10834 10834 10834 10834 10834 10834 10834 10834 10834 10833
10813 10814 10815 10816 10818 10819 10820 10821 10822 10823 10824 10824 10825 10825 10826 10825 10825 10825 10824 10824 10823 10823 10822 10823 10823 10822 10822 10822 10822 10822 10823 10824 10824 10825 10825 10825 10826 10825 10825 10825 10824 10824 10824
10805 10807 10808 10809 10809 10809 10810 10811 10812 10813 10813 10814 10814 10814 10815 10816 10817 10816 10816 10816 10816 10816 10815 10814 10814 10814 10814 10814 10813 10813 10813 10813 10814 10814 10814 10815 10816 10816 10817 10817 10816 10816 10815
10795 10798 10798 10799 10800 10800 10800 10801 10802 10802 10802 10803 10803 10804 10804 10804 10805 10806 10807 10806 10807 10806 10805 10805 10805 10805 10806 10806 10805 10804 10804 10803 10804 10804 10805 10804 10805 10806 10806 10806 10807 10807 10807
10782 10785 10788 10789 10790 10790 10790 10791 10791 10791 10791 10790 10789 10789 10791 10792 10792 10792 10794 10795 10796 10795 10795 10795 10796 10796 10796 10797 10796 10795 10794 10794 10795 10795 10795 10795 10796 10796 10797 10797 10797 10798 10798
10771 10772 10775 10776 10777 10778 10778 10778 10777 10776 10777 10777 10775 10775 10777 10778 10778 10778 10779 10780 10781 10781 10781 10783 10784 10786 10786 10787 10786 10786 10785 10785 10785 10785 10786 10787 10786 10787 10787 10788 10788 10789 10789
10759 10759 10760 10761 10762 10763 10764 10764 10763 10761 10762 10761 10760 10759 10762 10764 10763 10764 10764 10763 10763 10764 10765 10767 10768 10770 10773 10773 10775 10775 10774 10774 10774 10774 10774 10776 10777 10776 10776 10777 10777 10777 10778
10743 10744 10744 10744 10745 10747 10747 10746 10746 10746 10747 10745 10743 10741 10742 10744 10746 10747 10748 10749 10746 10745 10747 10750 10751 10753 10755 10757 10759 10759 10761 10762 10762 10761 10762 10763 10764 10764 10764 10765 10765 10767 10767
10728 10726 10725 10725 10725 10725 10725 10725 10725 10724 10724 10725 10726 10726 10724 10723 10724 10726 10727 10729 10730 10730 10731 10731 10734 10736 10737 10738 10740 10740 10745 10747 10748 10748 10750 10750 10750 10751 10752 10752 10753 10755 10756
10713 10711 10710 10708 10708 10707 10705 10703 10703 10702 10702 10703 10702 10702 10703 10705 10705 10705 10707 10706 10706 10709 10711 10710 10711 10714 10716 10717 10720 10723 10725 10726 10730 10733 10736 10736 10736 10736 10737 10738 10740 10741 10741
10695 10695 10695 10692 10691 10692 10689 10687 10684 10682 10681 10680 10681 10681 10679 10679 10681 10682 10685 10684 10682 10682 10684 10685 10688 10690 10694 10695 10696 10701 10703 10707 10711 10715 10717 10720 10722 10721 10722 10724 10726 10728 10727
10679 10679 10678 10675 10672 10671 10670 10666 10665 10661 10658 10656 10657 10658 10658 10658 10656 10655 10658 10659 10657 10657 10656 10656 10657 10662 10666 10669 10673 10674 10681 10685 10691 10693 10694 10698 10702 10703 10708 10707 10707 10708 10708
10662 10660 10658 10655 10654 10651 10647 10644 10643 10642 10639 10634 10632 10632 10633 10633 10633 10632 10631 10633 10633 10632 10632 10628 10628 10631 10637 10641 10645 10647 10655 10662 10662 10667 10672 10675 10679 10686 10691 10691 10690 10688 10688
10643 10640 10639 10637 10634 10632 10627 10624 10620 10618 10616 10614 10610 10609 10607 10608 10608 10608 10607 10606 10608 10603 10601 10603 10602 10603 10603 10615 10613 10619 10626 10635 10637 10642 10645 10652 10660 10669 10673 10671 10672 10668 10667
10626 10623 10622 10619 10614 10612 10607 10602 10598 10596 10595 10593 10591 10588 10585 10584 10583 10581 10581 10579 10574 10570 10572 10574 10575 10575 10576 10581 10584 10590 10597 10606 10614 10615 10623 10633 10637 10649 10656 10656 10653 10651 10646
10610 10606 10605 10600 10596 10593 10589 10584 10580 10578 10576 10573 10571 10569 10567 10563 10561 10559 10557 10553 10548 10542 10541 10547 10546 10545 10546 10550 10555 10559 10566 10573 10586 10592 10604 10613 10622 10626 10637 10638 10635 10632 10628